sat.trackr.live / text

‹ back to catalog

STARLINK-3597

NORAD 51898 · 2022-022AY

PAYLOAD ACTIVE UNKNOWN

§ Identity

Operator
Country
US
Launch date
2022-03-03
Launch site
AFETR
Launch vehicle
Mass (kg)
RCS (m²)

Purposes: comms

External: N2YO · Heavens-Above · Gunter

§ Orbital elements

Epoch: 2026-09-20T04:11:12.984576Z

Period
93.85 min
Inclination
53.1598°
Eccentricity
0.0001328
Mean motion
15.34385493 rev/d
Perigee alt
461.8 km
Apogee alt
463.7 km
Semi-major
6,840.9 km
B*
7.4828e-6
RAAN
188.9082°
Arg perigee
86.1436°
Mean anomaly
273.9718°
Rev number
25,289

§ Raw data

STARLINK-35971 51898U 22022AY  26263.17445584 -.00000124  00000+0  74828-5 0  99972 51898  53.1598 188.9082 0001328  86.1436 273.9718 15.34385493252890

JSON: /api/v1/satellites/51898 · /tle

For live sub-satellite position, see the globe view (requires WebGL).

§ Visibility from observer

Set your observer location to see the next 7 days of passes ≥ 10°. The values pass through the URL so the page stays shareable.

No JS? Fill the form by hand. The geolocation button needs JavaScript.